Location: ????????
(41.2031°N, 22.5756°E)
Time: 06:09:54
(UTC+00:00)

USA 81 - Pass Details

Date: 01 December 2020
Orbit: 783 x 791 km, 85.0° (Epoch: 30 November)

Event Time Altitude Azimuth Distance (km) Brightness Sun altitude
Rises 15:44:43 0° 359° (N) 3,288 7.1 -8.2°
Reaches altitude 10° 15:47:07 10° 3° (N) 2,356 6.3 -8.6°
Maximum altitude 15:52:21 61° 83° (E) 892 4.1 -9.5°
Drops below altitude 10° 15:57:33 10° 164° (SSE) 2,344 6.6 -10.4°
Sets 15:59:56 0° 168° (SSE) 3,270 7.4 -10.8°
